• En España
  • Lista de países
  • Para 7 días
  • Temperatura del agua
  • Mapa Satelital
  • El tiempo en el mapa
  • Informadores
  • user-avatar
    Iniciar sesión

    Tiempo cada hora Brisbane

    Hoy, 23 Junio, Sábado

    Tiempo Temperatura Precipitaciones Viento Presión Humedad
    00:00 +13°C° 0 mm 3 mps 767 mmHg 85%
    01:00 +12°C° 0 mm 3 mps 767 mmHg 86%
    02:00 +12°C° 0 mm 3 mps 767 mmHg 87%
    03:00 +12°C° 0 mm 3 mps 767 mmHg 88%
    04:00 +12°C° 0 mm 3 mps 767 mmHg 89%
    05:00 +11°C° 0 mm 3 mps 767 mmHg 89%
    06:00 +11°C° 0 mm 3 mps 767 mmHg 89%
    07:00 +11°C° 0 mm 3 mps 767 mmHg 90%
    08:00 +14°C° 0 mm 3 mps 767 mmHg 78%
    09:00 +17°C° 0 mm 2 mps 767 mmHg 67%
    10:00 +20°C° 0 mm 3 mps 767 mmHg 53%
    11:00 +21°C° 0 mm 2 mps 766 mmHg 46%
    12:00 +23°C° 0 mm 2 mps 766 mmHg 39%
    13:00 +25°C° 0 mm 2 mps 765 mmHg 32%
    14:00 +24°C° 0 mm 2 mps 765 mmHg 35%
    15:00 +23°C° 0 mm 2 mps 765 mmHg 37%
    16:00 +21°C° 0 mm 2 mps 765 mmHg 40%
    17:00 +19°C° 0 mm 2 mps 765 mmHg 49%
    18:00 +17°C° 0 mm 2 mps 766 mmHg 57%
    19:00 +16°C° 0 mm 1 mps 766 mmHg 66%
    20:00 +15°C° 0 mm 1 mps 766 mmHg 69%
    21:00 +15°C° 0 mm 1 mps 766 mmHg 71%
    22:00 +14°C° 0 mm 1 mps 766 mmHg 74%
    23:00 +14°C° 0 mm 1 mps 766 mmHg 75%

    Mañana, 24 Junio, Domingo

    Tiempo Temperatura Precipitaciones Viento Presión Humedad
    00:00 +13°C° 0 mm 2 mps 766 mmHg 76%
    01:00 +13°C° 0 mm 2 mps 766 mmHg 77%
    02:00 +13°C° 0 mm 2 mps 766 mmHg 76%
    03:00 +12°C° 0 mm 2 mps 766 mmHg 75%
    04:00 +12°C° 0 mm 2 mps 766 mmHg 73%
    05:00 +12°C° 0 mm 2 mps 766 mmHg 71%
    06:00 +10°C° 0 mm 2 mps 766 mmHg 69%
    07:00 +10°C° 0 mm 2 mps 767 mmHg 67%
    08:00 +14°C° 0 mm 2 mps 767 mmHg 57%
    09:00 +17°C° 0 mm 2 mps 767 mmHg 48%
    10:00 +20°C° 0 mm 2 mps 767 mmHg 38%
    11:00 +21°C° 0 mm 2 mps 766 mmHg 34%
    12:00 +23°C° 0 mm 2 mps 766 mmHg 30%
    13:00 +24°C° 0 mm 2 mps 765 mmHg 26%
    14:00 +24°C° 0 mm 2 mps 765 mmHg 30%
    15:00 +22°C° 0 mm 3 mps 765 mmHg 34%
    16:00 +22°C° 0 mm 3 mps 765 mmHg 38%
    17:00 +20°C° 0 mm 3 mps 765 mmHg 48%
    18:00 +18°C° 0 mm 3 mps 766 mmHg 57%
    19:00 +16°C° 0 mm 3 mps 766 mmHg 66%
    20:00 +14°C° 0 mm 3 mps 767 mmHg 70%
    21:00 +14°C° 0 mm 3 mps 767 mmHg 73%
    22:00 +13°C° 0 mm 3 mps 768 mmHg 77%
    23:00 +13°C° 0,1 mm 3 mps 768 mmHg 80%

    Pasado mañana, 25 Junio, Lunes

    Tiempo Temperatura Precipitaciones Viento Presión Humedad
    00:00 +12°C° 0,1 mm 3 mps 768 mmHg 82%
    01:00 +11°C° 0,1 mm 3 mps 768 mmHg 85%
    02:00 +11°C° 0,2 mm 3 mps 767 mmHg 86%
    03:00 +11°C° 0,2 mm 3 mps 767 mmHg 87%
    04:00 +11°C° 0,2 mm 3 mps 767 mmHg 88%
    05:00 +11°C° 0,2 mm 3 mps 768 mmHg 88%
    06:00 +11°C° 0,2 mm 3 mps 768 mmHg 87%
    07:00 +12°C° 0,2 mm 4 mps 768 mmHg 87%
    08:00 +14°C° 0,2 mm 4 mps 769 mmHg 79%
    09:00 +15°C° 0,2 mm 4 mps 769 mmHg 72%
    10:00 +18°C° 0,2 mm 4 mps 769 mmHg 65%
    11:00 +19°C° 0,2 mm 4 mps 768 mmHg 62%
    12:00 +20°C° 0,2 mm 5 mps 768 mmHg 59%
    13:00 +21°C° 0,2 mm 5 mps 767 mmHg 56%
    14:00 +21°C° 0,3 mm 5 mps 767 mmHg 59%
    15:00 +20°C° 0,3 mm 5 mps 767 mmHg 63%
    16:00 +20°C° 0,3 mm 5 mps 767 mmHg 66%
    17:00 +18°C° 0,2 mm 4 mps 767 mmHg 72%
    18:00 +17°C° 0,2 mm 4 mps 768 mmHg 78%
    19:00 +15°C° 0,2 mm 4 mps 769 mmHg 85%
    20:00 +15°C° 0,3 mm 4 mps 769 mmHg 86%
    21:00 +14°C° 0,3 mm 4 mps 769 mmHg 87%
    22:00 +14°C° 0,3 mm 3 mps 770 mmHg 88%
    23:00 +14°C° 0,4 mm 3 mps 769 mmHg 87%

    26 Junio, Martes

    Tiempo Temperatura Precipitaciones Viento Presión Humedad
    00:00 +14°C° 0,4 mm 3 mps 769 mmHg 86%
    01:00 +14°C° 0,4 mm 3 mps 769 mmHg 85%
    02:00 +14°C° 0,3 mm 3 mps 769 mmHg 85%
    03:00 +14°C° 0,3 mm 3 mps 769 mmHg 85%
    04:00 +14°C° 0,3 mm 4 mps 769 mmHg 85%
    05:00 +14°C° 0,2 mm 4 mps 769 mmHg 85%
    06:00 +14°C° 0,2 mm 4 mps 769 mmHg 85%
    07:00 +14°C° 0,2 mm 4 mps 770 mmHg 86%
    08:00 +15°C° 0,2 mm 4 mps 770 mmHg 79%
    09:00 +18°C° 0,2 mm 4 mps 770 mmHg 72%
    10:00 +20°C° 0,2 mm 4 mps 771 mmHg 66%
    11:00 +20°C° 0,3 mm 4 mps 770 mmHg 64%
    12:00 +21°C° 0,3 mm 5 mps 769 mmHg 61%
    13:00 +21°C° 0,3 mm 5 mps 769 mmHg 59%
    14:00 +21°C° 0,1 mm 5 mps 769 mmHg 62%
    15:00 +20°C° 0,1 mm 4 mps 768 mmHg 65%
    16:00 +20°C° 0,1 mm 4 mps 768 mmHg 67%
    17:00 +19°C° 0,1 mm 4 mps 769 mmHg 73%
    18:00 +18°C° 0,1 mm 4 mps 769 mmHg 78%
    19:00 +17°C° 0,1 mm 4 mps 769 mmHg 83%
    20:00 +15°C° 0,3 mm 4 mps 769 mmHg 85%
    21:00 +16°C° 0,3 mm 3 mps 770 mmHg 87%
    22:00 +16°C° 0,3 mm 3 mps 770 mmHg 89%
    23:00 +16°C° 0,4 mm 3 mps 770 mmHg 89%

    27 Junio, Miércoles

    Tiempo Temperatura Precipitaciones Viento Presión Humedad
    00:00 +16°C° 0,4 mm 3 mps 769 mmHg 90%
    01:00 +16°C° 0,4 mm 3 mps 769 mmHg 91%
    02:00 +16°C° 1 mm 3 mps 769 mmHg 91%
    03:00 +16°C° 1 mm 3 mps 768 mmHg 91%
    04:00 +16°C° 1 mm 3 mps 768 mmHg 92%
    05:00 +16°C° 0,9 mm 3 mps 768 mmHg 91%
    06:00 +16°C° 0,9 mm 3 mps 768 mmHg 91%
    07:00 +16°C° 0,9 mm 3 mps 768 mmHg 91%
    08:00 +16°C° 1,3 mm 3 mps 768 mmHg 90%
    09:00 +16°C° 1,3 mm 3 mps 768 mmHg 89%
    10:00 +17°C° 1,3 mm 3 mps 768 mmHg 89%
    11:00 +17°C° 0,7 mm 3 mps 768 mmHg 88%
    12:00 +17°C° 0,7 mm 3 mps 767 mmHg 87%
    13:00 +17°C° 0,7 mm 3 mps 766 mmHg 85%
    14:00 +17°C° 0,4 mm 3 mps 766 mmHg 86%
    15:00 +17°C° 0,4 mm 3 mps 766 mmHg 86%
    16:00 +17°C° 0,4 mm 2 mps 766 mmHg 86%
    17:00 +17°C° 0,5 mm 2 mps 766 mmHg 88%
    18:00 +17°C° 0,5 mm 2 mps 766 mmHg 90%
    19:00 +16°C° 0,5 mm 1 mps 767 mmHg 92%
    20:00 +16°C° 0,3 mm 1 mps 767 mmHg 93%
    21:00 +16°C° 0,3 mm 1 mps 766 mmHg 93%
    22:00 +15°C° 0,3 mm 1 mps 766 mmHg 94%
    23:00 +15°C° 0,4 mm 1 mps 766 mmHg 94%

    28 Junio, Jueves

    Tiempo Temperatura Precipitaciones Viento Presión Humedad
    00:00 +15°C° 0,4 mm 1 mps 766 mmHg 94%
    01:00 +15°C° 0,4 mm 1 mps 765 mmHg 94%
    02:00 +15°C° 0,7 mm 1 mps 765 mmHg 94%
    03:00 +15°C° 0,7 mm 1 mps 765 mmHg 94%
    04:00 +15°C° 0,7 mm 1 mps 764 mmHg 94%
    05:00 +15°C° 0 mm 1 mps 764 mmHg 94%
    06:00 +14°C° 0 mm 1 mps 765 mmHg 94%
    07:00 +14°C° 0 mm 2 mps 765 mmHg 94%
    08:00 +15°C° 0 mm 2 mps 765 mmHg 89%
    09:00 +17°C° 0 mm 2 mps 765 mmHg 85%
    10:00 +18°C° 0 mm 2 mps 765 mmHg 80%
    11:00 +20°C° 0 mm 2 mps 764 mmHg 71%
    12:00 +21°C° 0 mm 2 mps 763 mmHg 62%
    13:00 +24°C° 0 mm 2 mps 763 mmHg 53%
    14:00 +24°C° 0 mm 1 mps 763 mmHg 55%
    15:00 +23°C° 0 mm 1 mps 762 mmHg 57%
    16:00 +23°C° 0 mm 1 mps 762 mmHg 58%
    17:00 +21°C° 0 mm 1 mps 763 mmHg 64%
    18:00 +20°C° 0 mm 1 mps 763 mmHg 69%
    19:00 +18°C° 0 mm 1 mps 764 mmHg 75%
    20:00 +18°C° 0 mm 1 mps 764 mmHg 77%
    21:00 +16°C° 0 mm 1 mps 764 mmHg 79%
    22:00 +15°C° 0 mm 1 mps 764 mmHg 80%
    23:00 +15°C° 0 mm 1 mps 764 mmHg 80%
    Mostrar más